When you browse on this site, cookies collect data to enhance your experience and personalize the content and advertising you see.
Visit our Privacy Policy to learn more. By continuing to use the site, you agree to this use of cookies and data.
  • In Slovakia
  • List of Countries
  • For 7 days
  • Water Temperature
  • Weather Map
  • Weather Widgets
  • user-avatar
    Login

    Hourly Weather Liege

    Today, 25 August, Sunday

    Time Temperature Precipitation Wind Pressure Humidity
    00:00 +20°C° 0 mm 1 mps 754 mmHg 60%
    01:00 +20°C° 0 mm 1 mps 754 mmHg 61%
    02:00 +19°C° 0 mm 1 mps 754 mmHg 62%
    03:00 +19°C° 0 mm 1 mps 754 mmHg 63%
    04:00 +19°C° 0 mm 1 mps 754 mmHg 64%
    05:00 +20°C° 0 mm 1 mps 754 mmHg 64%
    06:00 +21°C° 0 mm 1 mps 754 mmHg 63%
    07:00 +23°C° 0 mm 1 mps 755 mmHg 58%
    08:00 +25°C° 0 mm 1 mps 755 mmHg 54%
    09:00 +26°C° 0 mm 0 mps 755 mmHg 49%
    10:00 +29°C° 0 mm 1 mps 755 mmHg 47%
    11:00 +30°C° 0 mm 1 mps 755 mmHg 44%
    12:00 +31°C° 0 mm 1 mps 755 mmHg 40%
    13:00 +31°C° 0 mm 1 mps 755 mmHg 40%
    14:00 +32°C° 0 mm 1 mps 754 mmHg 40%
    15:00 +32°C° 0 mm 1 mps 754 mmHg 40%
    16:00 +30°C° 0 mm 1 mps 754 mmHg 47%
    17:00 +28°C° 0 mm 1 mps 754 mmHg 53%
    18:00 +27°C° 0 mm 1 mps 754 mmHg 60%
    19:00 +25°C° 0 mm 1 mps 755 mmHg 62%
    20:00 +24°C° 0 mm 1 mps 755 mmHg 65%
    21:00 +23°C° 0 mm 1 mps 755 mmHg 67%
    22:00 +23°C° 0 mm 1 mps 755 mmHg 68%
    23:00 +22°C° 0 mm 1 mps 755 mmHg 69%

    Tomorrow, 26 August, Monday

    Time Temperature Precipitation Wind Pressure Humidity
    00:00 +22°C° 0 mm 1 mps 755 mmHg 70%
    01:00 +19°C° 0 mm 0 mps 755 mmHg 71%
    02:00 +19°C° 0 mm 0 mps 754 mmHg 73%
    03:00 +19°C° 0 mm 0 mps 754 mmHg 74%
    04:00 +19°C° 0 mm 0 mps 754 mmHg 74%
    05:00 +20°C° 0 mm 0 mps 754 mmHg 74%
    06:00 +21°C° 0 mm 0 mps 755 mmHg 74%
    07:00 +25°C° 0 mm 1 mps 755 mmHg 68%
    08:00 +27°C° 0 mm 1 mps 755 mmHg 62%
    09:00 +29°C° 0 mm 1 mps 755 mmHg 56%
    10:00 +30°C° 0 mm 2 mps 754 mmHg 53%
    11:00 +31°C° 0 mm 2 mps 754 mmHg 49%
    12:00 +32°C° 0 mm 2 mps 754 mmHg 46%
    13:00 +32°C° 0.2 mm 2 mps 754 mmHg 46%
    14:00 +32°C° 0.2 mm 2 mps 753 mmHg 47%
    15:00 +32°C° 0.2 mm 1 mps 753 mmHg 47%
    16:00 +30°C° 0 mm 1 mps 753 mmHg 53%
    17:00 +29°C° 0 mm 1 mps 752 mmHg 58%
    18:00 +28°C° 0 mm 1 mps 752 mmHg 64%
    19:00 +26°C° 0.2 mm 1 mps 753 mmHg 67%
    20:00 +25°C° 0.2 mm 1 mps 753 mmHg 70%
    21:00 +24°C° 0.2 mm 1 mps 753 mmHg 73%
    22:00 +23°C° 0 mm 1 mps 753 mmHg 75%
    23:00 +23°C° 0 mm 1 mps 753 mmHg 77%

    Day after tomorrow, 27 August, Tuesday

    Time Temperature Precipitation Wind Pressure Humidity
    00:00 +22°C° 0 mm 1 mps 753 mmHg 78%
    01:00 +22°C° 0 mm 1 mps 752 mmHg 78%
    02:00 +22°C° 0 mm 1 mps 752 mmHg 78%
    03:00 +21°C° 0 mm 1 mps 752 mmHg 78%
    04:00 +22°C° 0 mm 1 mps 752 mmHg 77%
    05:00 +22°C° 0 mm 1 mps 752 mmHg 76%
    06:00 +21°C° 0 mm 2 mps 752 mmHg 74%
    07:00 +25°C° 0 mm 2 mps 752 mmHg 66%
    08:00 +27°C° 0 mm 2 mps 752 mmHg 58%
    09:00 +29°C° 0 mm 2 mps 752 mmHg 50%
    10:00 +30°C° 0 mm 2 mps 752 mmHg 45%
    11:00 +32°C° 0 mm 2 mps 752 mmHg 41%
    12:00 +34°C° 0 mm 2 mps 752 mmHg 37%
    13:00 +32°C° 0 mm 2 mps 752 mmHg 37%
    14:00 +32°C° 0 mm 2 mps 751 mmHg 38%
    15:00 +32°C° 0 mm 2 mps 751 mmHg 39%
    16:00 +31°C° 0 mm 2 mps 751 mmHg 44%
    17:00 +29°C° 0 mm 2 mps 751 mmHg 50%
    18:00 +27°C° 0 mm 2 mps 751 mmHg 55%
    19:00 +26°C° 0 mm 2 mps 751 mmHg 56%
    20:00 +25°C° 0 mm 2 mps 751 mmHg 57%
    21:00 +24°C° 0 mm 2 mps 752 mmHg 58%
    22:00 +24°C° 0 mm 2 mps 752 mmHg 59%
    23:00 +23°C° 0 mm 2 mps 751 mmHg 60%

    28 August, Wednesday

    Time Temperature Precipitation Wind Pressure Humidity
    00:00 +21°C° 0 mm 2 mps 751 mmHg 61%
    01:00 +21°C° 0 mm 2 mps 751 mmHg 61%
    02:00 +21°C° 0 mm 2 mps 751 mmHg 60%
    03:00 +21°C° 0 mm 2 mps 751 mmHg 59%
    04:00 +21°C° 0 mm 2 mps 751 mmHg 60%
    05:00 +21°C° 0 mm 2 mps 751 mmHg 61%
    06:00 +23°C° 0 mm 2 mps 751 mmHg 61%
    07:00 +25°C° 0 mm 2 mps 751 mmHg 57%
    08:00 +27°C° 0 mm 2 mps 751 mmHg 53%
    09:00 +29°C° 0 mm 2 mps 751 mmHg 48%
    10:00 +30°C° 0 mm 3 mps 751 mmHg 47%
    11:00 +31°C° 0 mm 3 mps 751 mmHg 46%
    12:00 +33°C° 0 mm 4 mps 751 mmHg 44%
    13:00 +31°C° 0 mm 3 mps 751 mmHg 45%
    14:00 +31°C° 0 mm 3 mps 751 mmHg 46%
    15:00 +31°C° 0 mm 2 mps 751 mmHg 47%
    16:00 +29°C° 0.2 mm 2 mps 750 mmHg 53%
    17:00 +28°C° 0.2 mm 2 mps 750 mmHg 60%
    18:00 +26°C° 0.2 mm 1 mps 750 mmHg 67%
    19:00 +25°C° 0.8 mm 1 mps 750 mmHg 73%
    20:00 +23°C° 0.8 mm 1 mps 750 mmHg 79%
    21:00 +21°C° 0.8 mm 2 mps 751 mmHg 85%
    22:00 +21°C° 0.2 mm 2 mps 751 mmHg 86%
    23:00 +20°C° 0.2 mm 2 mps 750 mmHg 87%

    29 August, Thursday

    Time Temperature Precipitation Wind Pressure Humidity
    00:00 +20°C° 0.2 mm 3 mps 750 mmHg 88%
    01:00 +20°C° 0.4 mm 3 mps 751 mmHg 89%
    02:00 +20°C° 0.4 mm 3 mps 751 mmHg 91%
    03:00 +19°C° 0.4 mm 3 mps 751 mmHg 92%
    04:00 +19°C° 0 mm 3 mps 751 mmHg 93%
    05:00 +19°C° 0 mm 3 mps 751 mmHg 94%
    06:00 +19°C° 0 mm 3 mps 751 mmHg 95%
    07:00 +20°C° 0 mm 3 mps 752 mmHg 88%
    08:00 +21°C° 0 mm 3 mps 753 mmHg 80%
    09:00 +22°C° 0 mm 3 mps 753 mmHg 72%
    10:00 +22°C° 0 mm 4 mps 753 mmHg 68%
    11:00 +23°C° 0 mm 4 mps 754 mmHg 64%
    12:00 +25°C° 0 mm 5 mps 754 mmHg 59%
    13:00 +25°C° 0 mm 5 mps 754 mmHg 56%
    14:00 +25°C° 0 mm 5 mps 754 mmHg 53%
    15:00 +25°C° 0 mm 5 mps 754 mmHg 50%
    16:00 +22°C° 0 mm 4 mps 755 mmHg 56%
    17:00 +21°C° 0 mm 4 mps 755 mmHg 62%
    18:00 +19°C° 0 mm 3 mps 756 mmHg 68%
    19:00 +18°C° 0 mm 3 mps 756 mmHg 73%
    20:00 +16°C° 0 mm 2 mps 757 mmHg 79%
    21:00 +14°C° 0 mm 1 mps 757 mmHg 84%
    22:00 +14°C° 0 mm 1 mps 757 mmHg 84%
    23:00 +13°C° 0 mm 1 mps 757 mmHg 85%

    30 August, Friday

    Time Temperature Precipitation Wind Pressure Humidity
    00:00 +11°C° 0 mm 0 mps 757 mmHg 85%
    01:00 +11°C° 0 mm 0 mps 757 mmHg 86%
    02:00 +11°C° 0 mm 0 mps 757 mmHg 87%
    03:00 +10°C° 0 mm 0 mps 757 mmHg 88%
    04:00 +11°C° 0 mm 0 mps 757 mmHg 87%
    05:00 +12°C° 0 mm 0 mps 757 mmHg 85%
    06:00 +12°C° 0 mm 0 mps 758 mmHg 84%
    07:00 +15°C° 0 mm 0 mps 758 mmHg 76%
    08:00 +17°C° 0 mm 0 mps 758 mmHg 67%
    09:00 +19°C° 0 mm 0 mps 758 mmHg 59%
    10:00 +20°C° 0 mm 0 mps 757 mmHg 53%
    11:00 +22°C° 0 mm 0 mps 757 mmHg 48%
    12:00 +23°C° 0 mm 0 mps 757 mmHg 43%
    13:00 +25°C° 0 mm 1 mps 756 mmHg 42%
    14:00 +25°C° 0 mm 1 mps 756 mmHg 41%
    15:00 +25°C° 0 mm 1 mps 755 mmHg 40%
    16:00 +23°C° 0 mm 1 mps 755 mmHg 45%
    17:00 +22°C° 0 mm 1 mps 755 mmHg 51%
    18:00 +20°C° 0 mm 1 mps 755 mmHg 57%
    19:00 +19°C° 0 mm 1 mps 755 mmHg 60%
    20:00 +18°C° 0 mm 1 mps 756 mmHg 64%
    21:00 +14°C° 0 mm 0 mps 756 mmHg 68%
    22:00 +14°C° 0 mm 0 mps 755 mmHg 69%
    23:00 +13°C° 0 mm 0 mps 755 mmHg 71%
    Show more